Darstellungsparameter: Aktuell verwendete Einstellungen:
Skalierung der Graphiken ... ?
xyx+y,   Skalierungsfaktor:      Skalierung: Modus: x, Faktor: 1
Darstellungszeitraum ... ?
Vom - - bis: - -   Zeitraum: 04.03.2021 - 04.03.2021
Min/Max/Avg-Anzeige ... ?
Zeige MMA aktuell
Zeige MMA Monat
Zeige MMA alles
Zeige --A aktuell
Zeige --A Monat
Zeige --A alles
Keine MMA-Anzeige
MMA:
Minimum Maximum Average (ber die Originaldaten)
MMA-Basis: 23.02.2003 - 05.03.2021
Quicknavigation für Darstellung... ?
Tage:      1T, 2T, 3T, 5T -1T -2T -3T -5T +1T +2T +3T +5T
Wochen: 1W, 2W, 3W -1W -2W -3W +1W +2W +3W
Monate: 1M, 3M, 6M -1M -3M -6M +1M +3M +6M
Jahre:    1J, 3J, 5J, 10J -1J -3J -5J -10J +1J +3J +5J +10J
Nutze für die Darstellung ... ?
Originaldaten oder Mittelwerte auf ...
Stundenbasis Tagesbasis Wochenbasis
Monatsbasis Jahresbasis      Datenbasis: Original-Daten
Darstellen als:
Statistik (Auto) Statistik J:M      Darstellung:
Zur Graphik,    zurück zur Übersicht aller Sensoren.
 
Tabellarische Datenbersicht: ?
 
Sensor: Nr:Datum:Temp:Abs-Feuchte:Windchill:Wind:
Aussen-T/F 1 04-03-2021 01:00:00 6.3 C 6.44 g/m*3 6.3 C 0 km/h
2 04-03-2021 01:05:00 6.2 C 6.4 g/m*3 6.2 C 0 km/h
3 04-03-2021 01:10:00 6.1 C 6.36 g/m*3 6.1 C 0 km/h
4 04-03-2021 01:15:00 6.1 C 6.43 g/m*3 6.1 C 0 km/h
5 04-03-2021 01:20:00 6.1 C 6.43 g/m*3 6.1 C 0 km/h
6 04-03-2021 01:25:00 6.1 C 6.5 g/m*3 6.1 C 0 km/h
7 04-03-2021 01:30:00 6.1 C 6.5 g/m*3 6.1 C 0 km/h
8 04-03-2021 01:35:00 6.1 C 6.5 g/m*3 6.1 C 0 km/h
9 04-03-2021 01:40:00 6.2 C 6.55 g/m*3 6.2 C 0 km/h
10 04-03-2021 01:45:00 6.1 C 6.5 g/m*3 6.1 C 0 km/h
11 04-03-2021 01:50:00 6 C 6.39 g/m*3 6 C 0 km/h
12 04-03-2021 01:55:00 5.9 C 6.35 g/m*3 5.9 C 0 km/h
13 04-03-2021 02:00:00 5.8 C 6.3 g/m*3 5.8 C 0 km/h
14 04-03-2021 02:05:00 5.8 C 6.3 g/m*3 5.8 C 0 km/h
15 04-03-2021 02:10:00 5.7 C 6.26 g/m*3 5.7 C 0 km/h
16 04-03-2021 02:15:00 5.6 C 6.29 g/m*3 5.6 C 0 km/h
17 04-03-2021 02:20:00 5.6 C 6.29 g/m*3 5.6 C 0 km/h
18 04-03-2021 02:25:00 5.5 C 6.25 g/m*3 5.5 C 0 km/h
19 04-03-2021 02:30:00 5.4 C 6.21 g/m*3 5.4 C 0 km/h
20 04-03-2021 02:35:00 5.4 C 6.21 g/m*3 5.4 C 0 km/h
21 04-03-2021 02:40:00 5.3 C 6.17 g/m*3 5.3 C 0 km/h
22 04-03-2021 02:45:00 5.1 C 6.09 g/m*3 5.1 C 0 km/h
23 04-03-2021 02:50:00 5 C 6.05 g/m*3 5 C 0 km/h
24 04-03-2021 02:55:00 4.9 C 6.08 g/m*3 4.9 C 0 km/h
25 04-03-2021 03:00:00 4.8 C 6.04 g/m*3 4.8 C 0 km/h
Sensor: Nr:Datum:Temp:Abs-Feuchte:Windchill:Wind:
Aussen-T/F 26 04-03-2021 03:05:00 4.8 C 6.04 g/m*3 4.8 C 0 km/h
27 04-03-2021 03:10:00 4.8 C 6.04 g/m*3 4.8 C 0 km/h
28 04-03-2021 03:15:00 4.7 C 6 g/m*3 4.7 C 0 km/h
29 04-03-2021 03:20:00 4.8 C 6.1 g/m*3 4.8 C 4.8 km/h
30 04-03-2021 03:25:00 4.9 C 6.14 g/m*3 4.9 C 4.8 km/h
31 04-03-2021 03:30:00 4.9 C 6.14 g/m*3 4.9 C 0 km/h
32 04-03-2021 03:35:00 4.8 C 6.04 g/m*3 4.8 C 0 km/h
33 04-03-2021 03:40:00 4.7 C 6 g/m*3 4.7 C 0 km/h
34 04-03-2021 03:45:00 4.6 C 6.02 g/m*3 4.6 C 0 km/h
35 04-03-2021 03:50:00 4.5 C 5.98 g/m*3 4.5 C 0 km/h
36 04-03-2021 03:55:00 4.5 C 5.98 g/m*3 4.5 C 0 km/h
37 04-03-2021 04:00:00 4.5 C 5.98 g/m*3 4.5 C 0 km/h
38 04-03-2021 04:05:00 4.5 C 6.05 g/m*3 4.5 C 0 km/h
39 04-03-2021 04:10:00 4.6 C 6.09 g/m*3 4.6 C 0 km/h
40 04-03-2021 04:15:00 4.6 C 6.09 g/m*3 4.6 C 0 km/h
41 04-03-2021 04:20:00 4.5 C 6.05 g/m*3 4.5 C 0 km/h
42 04-03-2021 04:25:00 4.5 C 6.05 g/m*3 4.5 C 0 km/h
43 04-03-2021 04:30:00 4.4 C 6.01 g/m*3 4.4 C 0 km/h
44 04-03-2021 04:35:00 4.3 C 5.9 g/m*3 4.3 C 0 km/h
45 04-03-2021 04:40:00 4.3 C 5.97 g/m*3 4.3 C 0 km/h
46 04-03-2021 04:45:00 4.2 C 5.93 g/m*3 4.2 C 0 km/h
47 04-03-2021 04:50:00 4.2 C 5.93 g/m*3 4.2 C 0 km/h
48 04-03-2021 04:55:00 4.3 C 5.97 g/m*3 4.3 C 0 km/h
49 04-03-2021 05:00:00 4.3 C 6.03 g/m*3 4.3 C 0 km/h
50 04-03-2021 05:05:00 4.4 C 6.07 g/m*3 4.4 C 1.6 km/h
Sensor: Nr:Datum:Temp:Abs-Feuchte:Windchill:Wind:
Aussen-T/F 51 04-03-2021 05:10:00 4.6 C 6.15 g/m*3 4.6 C 1.6 km/h
52 04-03-2021 05:15:00 4.7 C 6.19 g/m*3 4.7 C 0 km/h
53 04-03-2021 05:20:00 4.7 C 6.19 g/m*3 4.7 C 0 km/h
54 04-03-2021 05:25:00 4.8 C 6.24 g/m*3 4.8 C 0 km/h
55 04-03-2021 05:30:00 4.8 C 6.24 g/m*3 4.8 C 0 km/h
56 04-03-2021 05:35:00 4.8 C 6.24 g/m*3 4.8 C 1.6 km/h
57 04-03-2021 05:40:00 4.8 C 6.24 g/m*3 4.8 C 1.6 km/h
58 04-03-2021 05:45:00 4.8 C 6.24 g/m*3 4.8 C 3.2 km/h
59 04-03-2021 05:50:00 4.8 C 6.17 g/m*3 4.8 C 0 km/h
60 04-03-2021 05:55:00 4.7 C 6.13 g/m*3 4.7 C 0 km/h
61 04-03-2021 06:00:00 4.5 C 6.05 g/m*3 4.5 C 0 km/h
62 04-03-2021 06:05:00 4.4 C 6.01 g/m*3 4.4 C 1.6 km/h
63 04-03-2021 06:10:00 4.3 C 5.97 g/m*3 4.3 C 0 km/h
64 04-03-2021 06:15:00 4.2 C 5.93 g/m*3 4.2 C 0 km/h
65 04-03-2021 06:20:00 4.1 C 5.89 g/m*3 4.1 C 0 km/h
66 04-03-2021 06:25:00 3.9 C 5.81 g/m*3 3.9 C 0 km/h
67 04-03-2021 06:30:00 4 C 5.85 g/m*3 4 C 0 km/h
68 04-03-2021 06:35:00 3.9 C 5.81 g/m*3 3.9 C 0 km/h
69 04-03-2021 06:40:00 3.7 C 5.73 g/m*3 3.7 C 0 km/h
70 04-03-2021 06:45:00 3.7 C 5.73 g/m*3 3.7 C 0 km/h
71 04-03-2021 06:50:00 3.7 C 5.8 g/m*3 3.7 C 0 km/h
72 04-03-2021 06:55:00 3.6 C 5.69 g/m*3 3.6 C 0 km/h
73 04-03-2021 07:00:00 3.6 C 5.76 g/m*3 3.6 C 0 km/h
74 04-03-2021 07:05:00 3.4 C 5.62 g/m*3 3.4 C 0 km/h
75 04-03-2021 07:10:00 3.4 C 5.68 g/m*3 3.4 C 0 km/h
Sensor: Nr:Datum:Temp:Abs-Feuchte:Windchill:Wind:
Aussen-T/F 76 04-03-2021 07:15:00 3.3 C 5.64 g/m*3 3.3 C 0 km/h
77 04-03-2021 07:20:00 3.3 C 5.64 g/m*3 3.3 C 0 km/h
78 04-03-2021 07:25:00 3.3 C 5.64 g/m*3 3.3 C 0 km/h
79 04-03-2021 07:30:00 3.4 C 5.74 g/m*3 3.4 C 0 km/h
80 04-03-2021 07:35:00 3.7 C 5.86 g/m*3 3.7 C 1.6 km/h
81 04-03-2021 07:40:00 3.9 C 5.94 g/m*3 3.9 C 0 km/h
82 04-03-2021 07:45:00 3.9 C 5.94 g/m*3 3.9 C 0 km/h
83 04-03-2021 07:50:00 4 C 5.98 g/m*3 4 C 0 km/h
84 04-03-2021 07:55:00 4.1 C 6.02 g/m*3 4.1 C 0 km/h
85 04-03-2021 08:00:00 4.2 C 6.12 g/m*3 4.2 C 0 km/h
86 04-03-2021 08:05:00 4.3 C 6.16 g/m*3 4.3 C 0 km/h
87 04-03-2021 08:10:00 4.4 C 6.2 g/m*3 4.4 C 0 km/h
88 04-03-2021 08:15:00 4.5 C 6.24 g/m*3 4.5 C 0 km/h
89 04-03-2021 08:20:00 4.6 C 6.29 g/m*3 4.6 C 1.6 km/h
90 04-03-2021 08:25:00 4.7 C 6.26 g/m*3 4.7 C 1.6 km/h
91 04-03-2021 08:30:00 4.8 C 6.3 g/m*3 4.8 C 0 km/h
92 04-03-2021 08:35:00 4.9 C 6.35 g/m*3 4.9 C 0 km/h
93 04-03-2021 08:40:00 5 C 6.39 g/m*3 5 C 0 km/h
94 04-03-2021 08:45:00 5.1 C 6.43 g/m*3 5.1 C 0 km/h
95 04-03-2021 08:50:00 5.2 C 6.47 g/m*3 5.2 C 0 km/h
96 04-03-2021 08:55:00 5.3 C 6.52 g/m*3 5.3 C 4.8 km/h
97 04-03-2021 09:00:00 5.4 C 6.49 g/m*3 5.4 C 1.6 km/h
98 04-03-2021 09:05:00 5.5 C 6.53 g/m*3 5.5 C 1.6 km/h
99 04-03-2021 09:10:00 5.7 C 6.62 g/m*3 5.7 C 1.6 km/h
100 04-03-2021 09:15:00 5.9 C 6.71 g/m*3 5.9 C 0 km/h
Sensor: Nr:Datum:Temp:Abs-Feuchte:Windchill:Wind:
Aussen-T/F 101 04-03-2021 09:20:00 6.1 C 6.79 g/m*3 6.1 C 0 km/h
102 04-03-2021 09:25:00 6.2 C 6.77 g/m*3 6.2 C 1.6 km/h
103 04-03-2021 09:30:00 6.2 C 6.77 g/m*3 6.2 C 0 km/h
104 04-03-2021 09:35:00 6.3 C 6.81 g/m*3 6.3 C 0 km/h
105 04-03-2021 09:40:00 6.4 C 6.78 g/m*3 6.4 C 0 km/h
106 04-03-2021 09:45:00 6.6 C 6.87 g/m*3 6.6 C 0 km/h
107 04-03-2021 09:50:00 6.7 C 6.91 g/m*3 6.7 C 0 km/h
108 04-03-2021 09:55:00 6.9 C 7.01 g/m*3 6.9 C 0 km/h
109 04-03-2021 10:00:00 7.2 C 7.14 g/m*3 7.2 C 0 km/h
110 04-03-2021 10:05:00 7.6 C 7.25 g/m*3 7.6 C 1.6 km/h
111 04-03-2021 10:10:00 7.8 C 7.26 g/m*3 7.8 C 1.6 km/h
112 04-03-2021 10:15:00 8 C 7.36 g/m*3 8 C 0 km/h
113 04-03-2021 10:20:00 8.3 C 7.5 g/m*3 8.3 C 1.6 km/h
114 04-03-2021 10:25:00 8.6 C 7.56 g/m*3 8.6 C 4.8 km/h
115 04-03-2021 10:30:00 8.9 C 7.53 g/m*3 7.69 C 8.1 km/h
116 04-03-2021 10:35:00 9.2 C 7.5 g/m*3 8.45 C 6.4 km/h
117 04-03-2021 10:40:00 9.3 C 7.46 g/m*3 9.3 C 3.2 km/h
118 04-03-2021 10:45:00 9.3 C 7.46 g/m*3 9.3 C 4.8 km/h
119 04-03-2021 10:50:00 9.3 C 7.37 g/m*3 9.3 C 3.2 km/h
120 04-03-2021 10:55:00 9.3 C 7.46 g/m*3 9.3 C 4.8 km/h
121 04-03-2021 11:00:00 9.3 C 7.55 g/m*3 9.3 C 0 km/h
122 04-03-2021 11:05:00 9.3 C 7.55 g/m*3 9.3 C 0 km/h
123 04-03-2021 11:10:00 9.4 C 7.6 g/m*3 9.4 C 0 km/h
124 04-03-2021 11:15:00 9.5 C 7.55 g/m*3 9.5 C 1.6 km/h
125 04-03-2021 11:20:00 9.6 C 7.6 g/m*3 9.6 C 0 km/h
Sensor: Nr:Datum:Temp:Abs-Feuchte:Windchill:Wind:
Aussen-T/F 126 04-03-2021 11:25:00 9.7 C 7.65 g/m*3 9.7 C 0 km/h
127 04-03-2021 11:30:00 9.8 C 7.61 g/m*3 9.8 C 0 km/h
128 04-03-2021 11:35:00 9.8 C 7.7 g/m*3 9.8 C 1.6 km/h
129 04-03-2021 11:40:00 9.9 C 7.66 g/m*3 9.9 C 4.8 km/h
130 04-03-2021 11:45:00 10 C 7.8 g/m*3 9.37 C 6.4 km/h
131 04-03-2021 11:50:00 10.2 C 7.9 g/m*3 8.66 C 11.3 km/h
132 04-03-2021 11:55:00 10.2 C 7.9 g/m*3 8.66 C 11.3 km/h
133 04-03-2021 12:00:00 10.2 C 7.9 g/m*3 9.6 C 6.4 km/h
134 04-03-2021 12:05:00 10.2 C 7.8 g/m*3 8.92 C 9.7 km/h
135 04-03-2021 12:10:00 10.2 C 7.9 g/m*3 8.66 C 11.3 km/h
136 04-03-2021 12:15:00 10.3 C 7.95 g/m*3 8.55 C 12.9 km/h
137 04-03-2021 12:20:00 10.5 C 8.05 g/m*3 9.57 C 8.1 km/h
138 04-03-2021 12:25:00 10.7 C 8.05 g/m*3 9.52 C 9.7 km/h
139 04-03-2021 12:30:00 10.8 C 8.11 g/m*3 10.29 C 6.4 km/h
140 04-03-2021 12:35:00 10.7 C 8.05 g/m*3 9.04 C 12.9 km/h
141 04-03-2021 12:40:00 10.7 C 8.05 g/m*3 10.18 C 6.4 km/h
142 04-03-2021 12:45:00 10.8 C 8.11 g/m*3 9.93 C 8.1 km/h
143 04-03-2021 12:50:00 10.8 C 8.11 g/m*3 10.29 C 6.4 km/h
144 04-03-2021 12:55:00 10.8 C 8.11 g/m*3 10.8 C 1.6 km/h
145 04-03-2021 13:00:00 10.7 C 8.05 g/m*3 10.7 C 4.8 km/h
146 04-03-2021 13:05:00 10.7 C 8.15 g/m*3 10.7 C 1.6 km/h
147 04-03-2021 13:10:00 10.7 C 8.15 g/m*3 10.7 C 4.8 km/h
148 04-03-2021 13:15:00 11 C 8.21 g/m*3 10.16 C 8.1 km/h
149 04-03-2021 13:20:00 11.2 C 8.21 g/m*3 11.2 C 6.4 km/h
150 04-03-2021 13:25:00 11.3 C 8.26 g/m*3 11.3 C 0 km/h
Sensor: Nr:Datum:Temp:Abs-Feuchte:Windchill:Wind:
Aussen-T/F 151 04-03-2021 13:30:00 11.3 C 8.26 g/m*3 11.3 C 0 km/h
152 04-03-2021 13:35:00 11.4 C 8.21 g/m*3 11.4 C 0 km/h
153 04-03-2021 13:40:00 11.4 C 8.21 g/m*3 11.4 C 1.6 km/h
154 04-03-2021 13:45:00 11.3 C 8.16 g/m*3 11.3 C 1.6 km/h
155 04-03-2021 13:50:00 11.3 C 8.16 g/m*3 11.3 C 1.6 km/h
156 04-03-2021 13:55:00 11.3 C 8.16 g/m*3 11.3 C 4.8 km/h
157 04-03-2021 14:00:00 11.2 C 8.21 g/m*3 11.2 C 6.4 km/h
158 04-03-2021 14:05:00 11.2 C 8.21 g/m*3 11.2 C 0 km/h
159 04-03-2021 14:10:00 11.3 C 8.26 g/m*3 11.3 C 3.2 km/h
160 04-03-2021 14:15:00 11.3 C 8.26 g/m*3 11.3 C 4.8 km/h
161 04-03-2021 14:20:00 11.3 C 8.26 g/m*3 11.3 C 3.2 km/h
162 04-03-2021 14:25:00 11.3 C 8.26 g/m*3 11.3 C 1.6 km/h
163 04-03-2021 14:30:00 11.3 C 8.16 g/m*3 11.3 C 3.2 km/h
164 04-03-2021 14:35:00 11.3 C 8.16 g/m*3 11.3 C 1.6 km/h
165 04-03-2021 14:40:00 11.3 C 8.16 g/m*3 11.3 C 1.6 km/h
166 04-03-2021 14:45:00 11.2 C 8.11 g/m*3 11.2 C 6.4 km/h
167 04-03-2021 14:50:00 11.1 C 8.16 g/m*3 11.1 C 6.4 km/h
168 04-03-2021 14:55:00 11 C 8.21 g/m*3 10.52 C 6.4 km/h
169 04-03-2021 15:00:00 10.9 C 8.26 g/m*3 10.9 C 3.2 km/h
170 04-03-2021 15:05:00 10.8 C 8.2 g/m*3 10.8 C 4.8 km/h
171 04-03-2021 15:10:00 10.6 C 8.2 g/m*3 10.6 C 1.6 km/h
172 04-03-2021 15:15:00 10.6 C 8.39 g/m*3 10.6 C 1.6 km/h
173 04-03-2021 15:20:00 10.3 C 8.14 g/m*3 9.72 C 6.4 km/h
174 04-03-2021 15:25:00 10.2 C 8.18 g/m*3 9.22 C 8.1 km/h
175 04-03-2021 15:30:00 10 C 8.17 g/m*3 8.19 C 12.9 km/h
Sensor: Nr:Datum:Temp:Abs-Feuchte:Windchill:Wind:
Aussen-T/F 176 04-03-2021 15:35:00 9.7 C 8.11 g/m*3 8.33 C 9.7 km/h
177 04-03-2021 15:40:00 9.4 C 8.05 g/m*3 7.04 C 16.1 km/h
178 04-03-2021 15:45:00 9.2 C 7.95 g/m*3 9.2 C 4.8 km/h
179 04-03-2021 15:50:00 9.1 C 7.99 g/m*3 9.1 C 4.8 km/h
180 04-03-2021 15:55:00 8.9 C 7.88 g/m*3 8.9 C 1.6 km/h
181 04-03-2021 16:00:00 8.8 C 7.92 g/m*3 8.8 C 0 km/h
182 04-03-2021 16:05:00 8.8 C 7.92 g/m*3 8.8 C 0 km/h
183 04-03-2021 16:10:00 8.7 C 7.96 g/m*3 8.7 C 0 km/h
184 04-03-2021 16:15:00 8.7 C 7.96 g/m*3 8.7 C 0 km/h
185 04-03-2021 16:20:00 8.7 C 7.96 g/m*3 8.7 C 0 km/h
186 04-03-2021 16:25:00 8.7 C 7.96 g/m*3 8.7 C 0 km/h
187 04-03-2021 16:30:00 8.7 C 7.96 g/m*3 8.7 C 0 km/h
188 04-03-2021 16:35:00 8.7 C 8.04 g/m*3 8.7 C 0 km/h
189 04-03-2021 16:40:00 8.8 C 8.09 g/m*3 8.8 C 0 km/h
190 04-03-2021 16:45:00 8.8 C 8.09 g/m*3 8.8 C 0 km/h
191 04-03-2021 16:50:00 8.8 C 8.09 g/m*3 8.8 C 0 km/h
192 04-03-2021 16:55:00 8.7 C 8.04 g/m*3 8.7 C 0 km/h
193 04-03-2021 17:00:00 8.7 C 8.04 g/m*3 8.7 C 0 km/h
194 04-03-2021 17:05:00 8.7 C 8.04 g/m*3 8.7 C 1.6 km/h
195 04-03-2021 17:10:00 8.8 C 8.09 g/m*3 8.8 C 3.2 km/h
196 04-03-2021 17:15:00 8.6 C 7.99 g/m*3 5.86 C 17.7 km/h
197 04-03-2021 17:20:00 8.3 C 7.75 g/m*3 5.31 C 19.3 km/h
198 04-03-2021 17:25:00 8 C 7.61 g/m*3 4.93 C 19.3 km/h
199 04-03-2021 17:30:00 7.9 C 7.56 g/m*3 5.63 C 12.9 km/h
200 04-03-2021 17:35:00 7.7 C 7.46 g/m*3 5.38 C 12.9 km/h
Sensor: Nr:Datum:Temp:Abs-Feuchte:Windchill:Wind:
Aussen-T/F 201 04-03-2021 17:40:00 7.5 C 7.36 g/m*3 5.14 C 12.9 km/h
202 04-03-2021 17:45:00 7.4 C 7.32 g/m*3 5.28 C 11.3 km/h
203 04-03-2021 17:50:00 7.2 C 7.22 g/m*3 4.31 C 16.1 km/h
204 04-03-2021 17:55:00 7.2 C 7.22 g/m*3 5.35 C 9.7 km/h
205 04-03-2021 18:00:00 7.2 C 7.22 g/m*3 7.2 C 1.6 km/h
206 04-03-2021 18:05:00 7.1 C 7.18 g/m*3 7.1 C 3.2 km/h
207 04-03-2021 18:10:00 7.1 C 7.18 g/m*3 4.92 C 11.3 km/h
208 04-03-2021 18:15:00 7 C 7.21 g/m*3 5.9 C 6.4 km/h
209 04-03-2021 18:20:00 6.8 C 7.04 g/m*3 5.67 C 6.4 km/h
210 04-03-2021 18:25:00 6.7 C 7.07 g/m*3 4.17 C 12.9 km/h
211 04-03-2021 18:30:00 6.5 C 6.9 g/m*3 4.2 C 11.3 km/h
212 04-03-2021 18:35:00 6.4 C 6.93 g/m*3 6.4 C 3.2 km/h
213 04-03-2021 18:40:00 6.3 C 6.88 g/m*3 3.43 C 14.5 km/h
214 04-03-2021 18:45:00 6.1 C 6.79 g/m*3 4.04 C 9.7 km/h
215 04-03-2021 18:50:00 5.9 C 6.71 g/m*3 4.17 C 8.1 km/h
216 04-03-2021 18:55:00 5.8 C 6.66 g/m*3 5.8 C 3.2 km/h
217 04-03-2021 19:00:00 5.7 C 6.62 g/m*3 4.4 C 6.4 km/h
218 04-03-2021 19:05:00 5.7 C 6.62 g/m*3 5.7 C 3.2 km/h
219 04-03-2021 19:10:00 5.6 C 6.65 g/m*3 5.6 C 0 km/h
220 04-03-2021 19:15:00 5.6 C 6.65 g/m*3 5.6 C 0 km/h
221 04-03-2021 19:20:00 5.4 C 6.49 g/m*3 2.87 C 11.3 km/h
222 04-03-2021 19:25:00 5.3 C 6.45 g/m*3 2.75 C 11.3 km/h
223 04-03-2021 19:30:00 5.1 C 6.36 g/m*3 3.71 C 6.4 km/h
224 04-03-2021 19:35:00 5 C 6.32 g/m*3 3.59 C 6.4 km/h
225 04-03-2021 19:40:00 4.9 C 6.28 g/m*3 4.9 C 3.2 km/h
Sensor: Nr:Datum:Temp:Abs-Feuchte:Windchill:Wind:
Aussen-T/F 226 04-03-2021 19:45:00 4.8 C 6.17 g/m*3 2.15 C 11.3 km/h
227 04-03-2021 19:50:00 4.7 C 6.13 g/m*3 2.37 C 9.7 km/h
228 04-03-2021 19:55:00 4.6 C 6.09 g/m*3 1.91 C 11.3 km/h
229 04-03-2021 20:00:00 4.5 C 6.05 g/m*3 1.79 C 11.3 km/h
230 04-03-2021 20:05:00 4.4 C 6.01 g/m*3 2.01 C 9.7 km/h
231 04-03-2021 20:10:00 4.4 C 6.01 g/m*3 2.01 C 9.7 km/h
232 04-03-2021 20:15:00 4.3 C 5.97 g/m*3 2.78 C 6.4 km/h
233 04-03-2021 20:20:00 4.2 C 5.93 g/m*3 2.17 C 8.1 km/h
234 04-03-2021 20:25:00 4.2 C 5.93 g/m*3 2.17 C 8.1 km/h
235 04-03-2021 20:30:00 4.1 C 5.89 g/m*3 1.31 C 11.3 km/h
236 04-03-2021 20:35:00 4 C 5.85 g/m*3 1.93 C 8.1 km/h
237 04-03-2021 20:40:00 4 C 5.91 g/m*3 1.93 C 8.1 km/h
238 04-03-2021 20:45:00 4 C 5.91 g/m*3 2.44 C 6.4 km/h
239 04-03-2021 20:50:00 4 C 5.91 g/m*3 1.18 C 11.3 km/h
240 04-03-2021 20:55:00 4 C 5.91 g/m*3 1.93 C 8.1 km/h
241 04-03-2021 21:00:00 4 C 5.91 g/m*3 1.53 C 9.7 km/h
242 04-03-2021 21:05:00 4 C 5.91 g/m*3 1.18 C 11.3 km/h
243 04-03-2021 21:10:00 4 C 5.91 g/m*3 1.18 C 11.3 km/h
244 04-03-2021 21:15:00 4 C 5.91 g/m*3 2.44 C 6.4 km/h
245 04-03-2021 21:20:00 4.1 C 5.95 g/m*3 4.1 C 4.8 km/h
246 04-03-2021 21:25:00 4.1 C 5.95 g/m*3 2.05 C 8.1 km/h
247 04-03-2021 21:30:00 4.1 C 5.95 g/m*3 1.65 C 9.7 km/h
248 04-03-2021 21:35:00 4.1 C 5.95 g/m*3 2.05 C 8.1 km/h
249 04-03-2021 21:40:00 4.1 C 5.95 g/m*3 1.31 C 11.3 km/h
250 04-03-2021 21:45:00 4.1 C 5.95 g/m*3 1.65 C 9.7 km/h
Sensor: Nr:Datum:Temp:Abs-Feuchte:Windchill:Wind:
Aussen-T/F 251 04-03-2021 21:50:00 4.1 C 5.95 g/m*3 2.55 C 6.4 km/h
252 04-03-2021 21:55:00 4.1 C 5.95 g/m*3 2.55 C 6.4 km/h
253 04-03-2021 22:00:00 4.1 C 5.95 g/m*3 2.05 C 8.1 km/h
254 04-03-2021 22:05:00 4.1 C 5.95 g/m*3 1.65 C 9.7 km/h
255 04-03-2021 22:10:00 4.1 C 5.95 g/m*3 2.55 C 6.4 km/h
256 04-03-2021 22:15:00 4.1 C 5.95 g/m*3 2.55 C 6.4 km/h
257 04-03-2021 22:20:00 4.1 C 5.95 g/m*3 4.1 C 4.8 km/h
258 04-03-2021 22:25:00 4.1 C 5.95 g/m*3 2.55 C 6.4 km/h
259 04-03-2021 22:30:00 4.1 C 5.95 g/m*3 2.55 C 6.4 km/h
260 04-03-2021 22:35:00 4.1 C 5.95 g/m*3 4.1 C 1.6 km/h
261 04-03-2021 22:40:00 4.2 C 5.99 g/m*3 2.67 C 6.4 km/h
262 04-03-2021 22:45:00 4.2 C 5.99 g/m*3 2.67 C 6.4 km/h
263 04-03-2021 22:50:00 4.2 C 5.99 g/m*3 2.17 C 8.1 km/h
264 04-03-2021 22:55:00 4.2 C 5.99 g/m*3 2.67 C 6.4 km/h
265 04-03-2021 23:00:00 4.2 C 5.99 g/m*3 2.67 C 6.4 km/h
266 04-03-2021 23:05:00 4.2 C 5.99 g/m*3 4.2 C 4.8 km/h
267 04-03-2021 23:10:00 4.2 C 5.99 g/m*3 2.17 C 8.1 km/h
268 04-03-2021 23:15:00 4.2 C 5.99 g/m*3 4.2 C 3.2 km/h
269 04-03-2021 23:20:00 4.2 C 5.99 g/m*3 4.2 C 0 km/h
270 04-03-2021 23:25:00 4.2 C 5.99 g/m*3 2.67 C 6.4 km/h
271 04-03-2021 23:30:00 4.2 C 5.99 g/m*3 4.2 C 4.8 km/h
272 04-03-2021 23:35:00 4.2 C 5.99 g/m*3 2.67 C 6.4 km/h
273 04-03-2021 23:40:00 4.2 C 5.99 g/m*3 4.2 C 3.2 km/h
274 04-03-2021 23:45:00 4.2 C 5.99 g/m*3 2.67 C 6.4 km/h
275 04-03-2021 23:50:00 4.2 C 5.99 g/m*3 4.2 C 4.8 km/h
Sensor: Nr:Datum:Temp:Abs-Feuchte:Windchill:Wind:
Aussen-T/F 276 04-03-2021 23:55:00 4.2 C 5.99 g/m*3 4.2 C 3.2 km/h

Legende:
   Min
   Max


Maximal/Minimal-Werte vom 23.02.2003 - 05.03.2021

Sensor Min Max Avg
Temp
(Aussen-T/F)
-16.4 °C
20-12-2009  01:30:01
40.4 °C
25-07-2019  16:20:00
11.15 °C

Die Daten stammen von einer Davis Vantage Pro 2 Wetter-Station und werden unter Linux mit der Software wview2wettercgi und aufbereitet. Alle Angaben erfolgen ohne Gewähr für ihre Vollständigkeit oder Richtigkeit.
Kontakt: Rainer Krienke krienke@uni-koblenz.de . Meine Webseiten an der Uni Koblenz oder privat.
Version: $Revision: 0.78 $